Date,TemperatureHighF,TemperatureAvgF,TemperatureLowF,DewpointHighF,DewpointAvgF,DewpointLowF,HumidityHigh,HumidityAvg,HumidityLow,PressureMaxIn,PressureMinIn,WindSpeedMaxMPH,WindSpeedAvgMPH,GustSpeedMaxMPH,PrecipitationSumIn
2014-1-1,26.1,17.9,9.7,14.8,9.2,4.2,87,69,50,30.30,30.12,7,1,0,0.00
2014-1-2,18.5,12.6,2.8,17.6,11.2,0.8,98,94,86,30.26,29.72,8,3,0,0.00
2014-1-3,10.4,2.0,-11.6,5.7,-1.9,-14.8,97,84,63,30.33,29.64,11,3,0,0.00
2014-1-4,19.4,6.5,-11.2,9.2,-0.5,-14.9,90,74,52,30.41,30.21,5,1,0,0.00
2014-1-5,41.2,24.2,9.9,40.7,20.4,7.1,98,86,61,30.25,29.80,5,1,0,0.18
2014-1-6,56.7,39.9,21.0,56.1,38.5,15.6,98,95,77,29.79,29.24,10,3,0,1.61
2014-1-7,21.0,6.7,1.0,16.1,-5.8,-11.4,81,56,43,30.16,29.45,11,5,0,0.01
2014-1-8,17.2,8.6,-0.4,6.2,-0.4,-7.8,80,67,49,30.39,30.16,6,1,0,0.00
2014-1-9,28.8,13.1,4.6,13.9,8.3,3.0,98,83,48,30.57,30.35,5,1,0,0.00
2014-1-10,33.1,24.8,9.5,32.6,24.2,9.1,98,98,87,30.51,30.19,3,0,0,0.00
2014-1-11,58.3,47.2,33.3,57.7,46.7,32.8,98,98,98,30.18,29.17,9,2,0,1.04
2014-1-12,50.9,38.9,31.5,50.4,33.4,25.8,98,81,67,29.91,29.22,12,4,0,0.02
2014-1-13,46.9,36.4,24.1,42.4,32.2,23.6,98,86,60,30.05,29.83,5,1,0,0.00
2014-1-14,44.8,43.3,37.4,44.3,42.8,36.9,98,98,98,29.82,29.58,6,1,0,0.87
2014-1-15,45.7,35.5,27.1,42.1,34.1,26.6,98,95,75,29.94,29.72,5,0,0,0.01
2014-1-16,39.2,35.1,32.4,38.7,34.6,31.9,98,98,98,29.85,29.77,3,0,0,0.00
2014-1-17,41.9,32.5,28.4,34.9,29.7,26.1,98,90,61,29.90,29.83,5,1,0,0.01
2014-1-18,35.2,31.5,27.9,34.7,31.0,27.4,98,98,98,29.83,29.53,4,1,0,0.01
2014-1-19,33.3,27.2,23.7,31.2,25.7,23.1,98,94,82,29.68,29.47,5,0,0,0.00
2014-1-20,42.8,31.4,17.1,33.3,24.8,6.2,98,77,58,29.82,29.42,9,4,0,0.24
2014-1-21,18.3,12.1,5.5,7.1,2.6,-2.6,96,67,43,29.95,29.79,6,3,0,0.00
2014-1-22,14.4,4.9,-2.2,0.6,-6.1,-11.5,80,60,40,29.84,29.61,12,3,0,0.00
2014-1-23,21.0,6.4,-5.8,0.8,-4.0,-9.5,87,64,37,30.09,29.84,8,2,0,0.00
2014-1-24,18.7,8.0,-1.3,0.7,-4.0,-8.4,74,58,34,30.20,29.94,10,3,0,0.00
2014-1-25,32.7,20.2,10.4,26.8,13.7,0.4,98,77,52,29.93,29.27,9,2,0,0.00
2014-1-26,21.0,14.2,7.3,15.5,3.4,-99.9,98,66,40,29.75,29.27,9,-8,0,0.00
2014-1-27,38.7,22.9,13.5,36.5,16.0,-2.5,98,77,42,29.93,29.46,15,3,0,0.03
2014-1-28,20.5,11.2,3.7,-0.8,-5.8,-11.0,61,47,27,30.24,29.93,13,2,0,0.01
2014-1-29,28.0,14.6,5.9,3.9,-2.8,-10.1,80,48,20,30.14,29.89,7,1,0,0.00
2014-1-30,32.7,14.9,0.7,15.3,2.7,-5.6,94,60,32,30.36,30.08,5,1,0,0.00
2014-1-31,41.5,28.7,17.4,23.3,18.8,11.4,98,69,36,30.14,29.96,7,1,0,0.00